Погода в Бесовце

Россия / Республика Карелия     61°51′53″N   34°09′24″E
темп.,
°C
ветер,
м/с
пор.,
м/с
влажн.,
%
обл.,
%
осадки,
мм/ч
давл.,
гПа
погр.,
м
3 августа, вт
вт300:00+16в51392100 0.9 997645
03:00+15вюв51297100 5.4 993632
06:00+16юв31099100 2.2 989620
09:00+16ююз51197100 3.3 988884
12:00+14юз81893100 0.5 9911388
15:00+17юз7167629 0.7 9961350
18:00+17юз714725 0.1 9971351
21:00+13юз5128738 0.1 999979
4 августа, ср
ср400:00+12зюз61279100 0.1 10011000
03:00+11зюз51183100 0.1 10031034
06:00+12зюз511735 0.0 10051118
09:00+15зюз612540 0.0 10061642
12:00+18з711387 0.0 10082306
15:00+20з6103357 0.0 10092766
18:00+18зсз493973 0.0 10112455
21:00+13з115878 0.0 101413
5 августа, чт
чт500:00+11юз11697 0.0 101513
03:00+10юз227771 0.0 101635
06:00+12зюз1367100 0.0 1017123
09:00+15з1259100 0.0 1017314
12:00+19юз124034 0.0 10171923
15:00+16вюв125790 0.0 1018399
18:00+14св1273100 0.3 101871
21:00+13юв227497 0.3 101938
6 августа, пт
пт600:00+13ссв117382 0.0 101911
03:00+12всв117797 0.0 101914
06:00+13ссв1377100 0.0 1020106
09:00+17всв345736 0.0 1020640
12:00+18в464711 0.0 10201376
15:00+20в45368 0.0 10202295
18:00+18в35465 0.0 10201017
21:00+13всв227370 0.0 102118
7 августа, сб
сб700:00+13всв26776 0.0 1021170
03:00+11всв27855 0.0 1022172
06:00+12всв38740 0.0 1023425
09:00+15в47620 0.0 1023717
12:00+18в58444 0.0 10221665
15:00+19всв583789 0.0 10221902
18:00+19всв484698 0.0 10211779
21:00+17в51253100 0.0 1021677